Location: Belb�ze
(43.1324°N, 1.0258°E)
Time: 08:39:10
(UTC+00:00)

Daily predictions for brighter satellites

Satellite Brightness Start Highest point End
(mag) Time Altitude Azimuth Time Altitude Azimuth Time Altitude Azimuth
YAOGAN 1 4.2 17:18:36 10° E 17:20:52 14° ENE 17:23:09 10° NNE
BREEZE-M TANK 3.6 17:08:59 10° W 17:21:00 74° N 17:24:46 10° E
Atlas Centaur 2 4.3 17:14:28 10° SW 17:21:08 29° SSE 17:28:10 10° ESE
Meteor 2-21 Rocket 4.4 17:16:58 10° N 17:23:09 72° E 17:29:14 10° SSE
NOAA 11 4.3 17:20:13 10° SSE 17:25:29 54° ENE 17:30:46 10° N
Cosmos 44 3.7 17:21:38 10° SW 17:26:04 61° NW 17:30:49 10° NNE
Radarsat Rocket 4.4 17:21:08 10° S 17:27:09 67° WSW 17:32:57 10° NNW
Okean O Rocket 1.7 17:23:01 10° SSE 17:27:22 86° WSW 17:31:45 10° NNW
Cosmos 1340 3.2 17:24:05 10° N 17:27:36 35° ENE 17:31:04 10° SE
Cosmos 2228 3.1 17:23:23 10° S 17:27:38 80° W 17:31:56 10° N
Cosmos 1726 Rocket 3.5 17:24:08 10° S 17:28:28 77° E 17:32:52 10° N
CZ-4 R/B 2.8 17:26:41 10° ESE 17:29:12 17° ENE 17:31:42 10° NNE
SL-4 R/B 3.3 17:30:52 10° NW 17:33:42 22° N 17:36:32 11° ENE
Aureole 3 2.9 17:31:18 10° S 17:34:18 44° E 17:37:10 10° NNE
CORIOLIS 4.2 17:29:13 10° SSE 17:34:33 88° WSW 17:39:58 10° NNW
Cosmos 1346 Rocket 3.9 17:32:07 10° NNE 17:35:20 23° ENE 17:38:31 10° SE
Cosmos 1980 Rocket 3.6 17:32:39 10° SE 17:36:01 16° E 17:39:22 10° ENE
Cosmos 2058 4.0 17:32:54 10° NNE 17:36:10 22° ENE 17:39:25 10° SE
Cosmos 2297 Rocket 2.2 17:33:24 10° NNW 17:39:03 64° ENE 17:44:40 10° SE
Timation 2 Rocket 4.3 17:34:05 10° NNW 17:40:45 83° WSW 17:47:36 10° SSE
In-Cosmos 22 Rocket 4.2 17:35:47 10° N 17:41:03 53° ENE 17:46:24 10° SSE
CZ-2C R/B 4.1 17:37:59 10° SE 17:42:51 29° ENE 17:47:37 10° N
Cosmos 1315 Rocket 3.9 17:41:38 10° SE 17:44:51 24° E 17:48:06 10° NE
Cosmos 1606 Rocket 4.4 17:40:41 10° SSW 17:44:57 55° W 17:49:19 10° N
Cosmos 1553 Rocket 4.1 17:42:30 10° S 17:48:42 57° E 17:54:49 10° NNE
Cosmos 220 Rocket 4.4 17:46:14 10° S 17:50:19 42° ESE 17:54:30 10° NNE
BREEZE-M R/B 4.1 17:50:36 10° WNW 17:54:11 41° NNE 17:59:00 17° ENE
Meteor 2-10 Rocket 3.8 17:49:33 10° SSE 17:54:34 44° E 17:59:25 10° NNE
USA 305 3.5 17:51:33 10° NW 17:55:37 40° NNE 17:58:11 20° E
Cosmos 1455 2.9 17:53:21 10° SSE 17:56:41 31° E 18:00:05 10° NNE
SKYMED 2 3.5 17:53:04 10° NNE 17:57:24 64° E 18:01:42 10° S
SeaSat 1 4.0 18:00:38 16° ENE 18:01:28 16° NE 18:04:27 10° N
USA 306 3.4 17:58:02 10° NW 18:02:09 43° NNE 18:04:25 23° E
H-2A R/B 2.9 17:58:41 10° SE 18:03:19 30° ENE 18:08:01 10° N
Okean-O 2.8 18:00:22 10° SE 18:04:36 47° ENE 18:08:52 10° N
Cosmos 2278 4.3 18:04:13 10° SSE 18:09:13 33° ESE 18:12:45 17° NE
MOS 1 Rocket 4.1 18:05:37 10° NNE 18:09:53 31° E 18:14:20 10° SSE
NOSS 3-3 (A) 3.8 18:04:14 10° SSW 18:09:54 68° ESE 18:16:10 11° NE
NOSS 3-3 (C) 3.8 18:04:20 10° SSW 18:10:01 67° ESE 18:16:14 11° NE
Aureole 3 Rocket 3.6 18:06:15 10° SSW 18:10:15 68° WNW 18:15:51 10° N
SL-08 R/B 4.4 18:04:09 10° N 18:10:21 82° E 18:16:26 10° S
Cosmos 2219 3.6 18:06:54 10° NNW 18:12:38 68° WSW 18:18:19 10° SSE
USA 215 4.5 18:10:10 15° NE 18:14:13 27° N 18:19:31 10° NW
Cosmos 1745 Rocket 4.0 18:10:34 10° N 18:16:51 67° E 18:23:09 10° SSE
Cosmos 44 Rocket 3.5 18:13:01 10° S 18:17:33 47° ESE 18:19:58 25° ENE
Lacrosse 5 3.7 18:14:49 10° NW 18:18:14 18° N 18:20:11 15° NE
ARGOS 3.9 18:17:21 25° E 18:19:11 31° ENE 18:23:52 10° N
Cosmos 1408 2.5 18:16:15 10° N 18:19:53 64° E 18:23:32 10° SSE
Cosmos 2082 3.7 18:14:14 10° NNW 18:19:56 62° ENE 18:25:36 10° SE
Cosmos 1656 4.2 18:16:49 10° SW 18:22:18 59° WNW 18:27:54 10° NNE
Cosmos 2058 Rocket 4.3 18:18:42 10° SSW 18:22:59 44° WNW 18:27:20 10° N
ATLAS 2AS CENTAUR R/B 3.7 18:17:06 10° NNW 18:23:41 31° NE 18:26:17 25° ENE
Cosmos 968 Rocket 3.6 18:20:04 10° NNW 18:25:17 77° WSW 18:30:25 10° SSE
Cosmos 1386 Rocket 4.4 18:19:14 10° N 18:25:39 74° E 18:31:56 10° SSE
Cosmos 1689 Rocket 3.0 18:23:15 10° N 18:26:03 47° WNW 18:28:50 10° SSW
FALCON 9 DEB 4.4 18:30:19 10° NW 18:32:58 27° N 18:32:58 27° N
Cosmos 2369 3.6 18:27:49 10° SSW 18:33:32 80° ESE 18:39:12 10° NNE
Cosmos 1076 Rocket 3.3 18:30:03 10° N 18:34:19 71° E 18:38:33 10° SSE
Cosmos 1939 Rocket 4.1 18:31:53 10° S 18:35:39 43° W 18:39:24 10° NNW
Cosmos 1892 3.7 18:32:45 10° NNW 18:36:31 49° W 18:40:15 10° S
CSL-04 Rocket 3.7 18:34:58 10° SSE 18:40:26 61° ENE 18:45:52 10° N
Cosmos 2227 Rocket 3.1 18:38:05 10° NW 18:43:30 49° WSW 18:48:55 10° S
COSMO-SKYMED 1 4.0 18:41:19 10° N 18:45:22 39° WNW 18:49:23 10° SW
Cosmos 2263 Rocket 3.1 18:40:43 10° N 18:45:08 30° NE 18:45:08 30° NE
USA 307 2.7 18:41:44 10° NW 18:46:01 81° NE 18:46:28 69° E
Cosmos 1709 Rocket 4.0 18:40:01 10° N 18:46:22 64° E 18:52:41 10° SSE
CZ-4C R/B 3.9 18:42:48 10° NNW 18:48:32 26° NE 18:49:38 25° NE
OAO 2 Rocket 4.4 18:44:41 10° WSW 18:49:05 32° S 18:50:07 29° SSE
USA 308 2.7 18:46:42 10° NW 18:51:00 87° NNE 18:51:15 79° ESE
Cosmos 1825 2.1 18:48:17 10° N 18:52:05 80° W 18:52:23 72° SSW
Helios 1A Rocket 4.1 18:49:19 10° S 18:53:14 43° W 18:57:09 10° NNW
Cosmos 1697 Rocket 3.2 18:50:13 10° SW 18:55:45 60° WNW 19:01:20 10° NNE
YAOGAN 1 3.0 18:52:12 10° S 18:56:28 61° W 19:00:46 10° NNW
Cosmos 883 Rocket 4.3 18:52:25 10° S 18:58:35 87° E 19:04:45 10° N
GPS 2-04 Rocket1 4.3 18:55:49 10° SW 18:58:37 25° S 18:58:37 25° S
Cosmos 1812 Rocket 4.1 18:59:15 10° SSW 19:03:35 57° W 19:07:54 10° N
CZ-4 R/B 2.7 19:00:20 10° SSW 19:03:57 37° W 19:07:34 10° NNW
Milstar 3 4.2 19:02:29 10° WSW 19:07:40 23° S 19:09:47 20° SSE
Cosmos 2315 Rocket 3.8 19:03:12 10° S 19:09:24 86° E 19:15:38 10° N
Atlas Centaur 2 4.0 19:02:44 10° WSW 19:10:01 33° S 19:12:40 28° SSE
SL-4 R/B 3.5 19:10:13 10° NW 19:12:07 28° NW 19:12:07 28° NW
Cosmos 1980 Rocket 2.3 19:13:43 10° SSW 19:19:20 72° WNW 19:21:13 43° N
CZ-2C R/B 4.3 19:17:00 10° S 19:22:29 44° W 19:27:52 10° NNW
SeaSat 1 3.6 19:40:26 36° NNW 19:40:26 36° NNW 19:43:19 10° NNW
H-2A R/B 3.4 19:37:31 10° SSW 19:42:33 39° W 19:47:41 10° NNW
NOSS 3-4 (A) 3.8 19:46:15 10° NW 19:53:07 82° W 19:53:07 82° W
NOSS 3-4 (C) 3.8 19:46:21 10° NW 19:53:11 82° W 19:53:11 82° W
USA 215 4.0 19:57:31 41° N 19:57:31 41° N 20:02:25 10° NW
ARGOS 4.4 19:58:53 37° WSW 19:59:18 38° W 20:04:22 10° NNW
Lacrosse 5 4.1 19:57:47 10° NW 19:59:23 19° NNW 19:59:23 19° NNW
ATLAS 2AS CENTAUR R/B 3.3 20:08:01 10° NW 20:13:44 55° NW 20:13:44 55° NW
Cosmos 2263 Rocket 4.1 20:24:24 10° NW 20:26:50 25° NW 20:26:50 25° NW
CZ-4C R/B 3.9 20:30:47 10° NW 20:34:50 38° NNW 20:34:50 38° NNW
